CFG6DF EDDS-LEPA

Flight info

Callsign CFG6DF
Flight time 1h 48m
Altitude 35000
Route ROTWE5B ROTWE Y126 TUBLO N850 NATOR DCT LUTIX DCT BENOT DCT NEMOS DCT GEVEA DCT INCUS DCT BALSI DCT RETNO DCT TUPOX DCT MTG DCT DIVKO DCT VATIR DCT PIVUS DCT BODEQ DCT VERSO L129 LUNIK
Aircraft A21N/M-SBDE3FGHIJ1J4J7LORVWXYZ/SB2D1G1

Departure

Time 2026-05-06 13:59
Airport Stuttgart Airport (EDDS)

Arrival

Time 2026-05-06 15:48
Airport Palma de Mallorca Airport (LEPA)
Time Latitude Longitude Altitude Speed Heading
2026-05-06 13:00 48.68949 9.19716 1317 ft 0 kts 343°
2026-05-06 13:47 48.68944 9.19719 1317 ft 3 kts 343°
2026-05-06 13:47 48.68924 9.19727 1315 ft 3 kts 344°
2026-05-06 13:47 48.68907 9.19735 1314 ft 3 kts 345°
2026-05-06 13:48 48.68889 9.19738 1313 ft 3 kts 14°
2026-05-06 13:48 48.68875 9.19726 1313 ft 3 kts 57°
2026-05-06 13:48 48.68867 9.19700 1313 ft 3 kts 74°
2026-05-06 13:48 48.68867 9.19699 1313 ft 2 kts 74°
2026-05-06 13:51 48.68867 9.19701 1313 ft 1 kts 74°
2026-05-06 13:51 48.68876 9.19747 1312 ft 8 kts 74°
2026-05-06 13:51 48.68886 9.19853 1308 ft 12 kts 115°
2026-05-06 13:52 48.68819 9.19928 1302 ft 13 kts 109°
2026-05-06 13:52 48.68842 9.20061 1299 ft 14 kts 74°
2026-05-06 13:52 48.68869 9.20205 1296 ft 15 kts 74°
2026-05-06 13:52 48.68897 9.20358 1292 ft 16 kts 73°
2026-05-06 13:53 48.68930 9.20519 1288 ft 16 kts 73°
2026-05-06 13:53 48.68962 9.20689 1285 ft 17 kts 74°
2026-05-06 13:53 48.68996 9.20866 1281 ft 18 kts 74°
2026-05-06 13:53 48.69031 9.21051 1275 ft 19 kts 74°
2026-05-06 13:54 48.69068 9.21243 1271 ft 19 kts 74°
2026-05-06 13:54 48.69106 9.21443 1271 ft 20 kts 74°
2026-05-06 13:54 48.69145 9.21648 1261 ft 21 kts 74°
2026-05-06 13:54 48.69184 9.21858 1262 ft 21 kts 74°
2026-05-06 13:55 48.69226 9.22077 1259 ft 22 kts 74°
2026-05-06 13:55 48.69268 9.22303 1255 ft 23 kts 74°
2026-05-06 13:55 48.69312 9.22539 1246 ft 23 kts 74°
2026-05-06 13:55 48.69357 9.22776 1240 ft 24 kts 74°
2026-05-06 13:56 48.69405 9.23023 1230 ft 25 kts 73°
2026-05-06 13:56 48.69454 9.23276 1225 ft 25 kts 73°
2026-05-06 13:56 48.69504 9.23538 1220 ft 26 kts 74°
2026-05-06 13:56 48.69554 9.23807 1214 ft 27 kts 74°
2026-05-06 13:57 48.69606 9.24079 1208 ft 20 kts 75°
2026-05-06 13:57 48.69586 9.24218 1202 ft 11 kts 118°
2026-05-06 13:57 48.69539 9.24297 1198 ft 11 kts 153°
2026-05-06 13:57 48.69463 9.24333 1195 ft 12 kts 164°
2026-05-06 13:58 48.69386 9.24290 1197 ft 10 kts 250°
2026-05-06 13:58 48.69327 9.23984 1203 ft 62 kts 255°
2026-05-06 13:58 48.69152 9.23063 1221 ft 119 kts 254°
2026-05-06 13:58 48.68893 9.21696 1338 ft 142 kts 256°
2026-05-06 13:59 48.68651 9.20246 1722 ft 148 kts 260°
2026-05-06 13:59 48.68397 9.18682 2119 ft 159 kts 256°
2026-05-06 13:59 48.68072 9.17067 2702 ft 161 kts 254°
2026-05-06 13:59 48.67752 9.15409 3146 ft 169 kts 253°
2026-05-06 14:00 48.67403 9.13621 3520 ft 184 kts 253°
2026-05-06 14:00 48.67029 9.11684 3928 ft 198 kts 253°
2026-05-06 14:00 48.66627 9.09594 4276 ft 217 kts 253°
2026-05-06 14:00 48.66186 9.07311 4619 ft 234 kts 253°
2026-05-06 14:01 48.65711 9.04856 4960 ft 254 kts 253°
2026-05-06 14:01 48.65210 9.02274 5037 ft 255 kts 253°
2026-05-06 14:01 48.64705 8.99677 4956 ft 258 kts 253°
2026-05-06 14:01 48.64199 8.97080 4890 ft 259 kts 253°
2026-05-06 14:02 48.63695 8.94489 5481 ft 256 kts 253°
2026-05-06 14:02 48.63184 8.91868 6283 ft 262 kts 253°
2026-05-06 14:02 48.62665 8.89218 7111 ft 263 kts 253°
2026-05-06 14:02 48.62143 8.86555 7883 ft 268 kts 252°
2026-05-06 14:03 48.61465 8.83953 8607 ft 272 kts 240°
2026-05-06 14:03 48.60448 8.81514 9359 ft 278 kts 236°
2026-05-06 14:03 48.59357 8.79064 10022 ft 288 kts 236°
2026-05-06 14:03 48.58201 8.76458 10350 ft 309 kts 236°
2026-05-06 14:04 48.56968 8.73663 10625 ft 331 kts 236°
2026-05-06 14:04 48.55657 8.70680 10885 ft 349 kts 236°
2026-05-06 14:04 48.54303 8.67593 11433 ft 357 kts 236°
2026-05-06 14:04 48.52927 8.64461 12188 ft 358 kts 236°
2026-05-06 14:05 48.51549 8.61321 12942 ft 360 kts 236°
2026-05-06 14:05 48.50155 8.58155 13630 ft 364 kts 235°
2026-05-06 14:05 48.48746 8.54956 14230 ft 368 kts 235°
2026-05-06 14:05 48.47338 8.51763 14841 ft 371 kts 235°
2026-05-06 14:06 48.45904 8.48513 15512 ft 373 kts 234°
2026-05-06 14:06 48.44449 8.45266 16097 ft 376 kts 232°
2026-05-06 14:06 48.42709 8.42316 16671 ft 379 kts 220°
2026-05-06 14:06 48.40543 8.40053 17226 ft 381 kts 206°
2026-05-06 14:07 48.38060 8.38660 17813 ft 381 kts 193°
2026-05-06 14:07 48.35462 8.37822 18315 ft 384 kts 191°
2026-05-06 14:07 48.32821 8.37045 18737 ft 388 kts 191°
2026-05-06 14:07 48.30157 8.36242 19106 ft 392 kts 191°
2026-05-06 14:08 48.27469 8.35411 19503 ft 396 kts 191°
2026-05-06 14:08 48.24762 8.34564 19931 ft 398 kts 191°
2026-05-06 14:08 48.22033 8.33707 20406 ft 401 kts 191°
2026-05-06 14:08 48.19301 8.32834 20917 ft 404 kts 193°
2026-05-06 14:09 48.16648 8.31550 21399 ft 407 kts 202°
2026-05-06 14:09 48.14155 8.29511 21920 ft 411 kts 211°
2026-05-06 14:09 48.11720 8.27142 22434 ft 413 kts 212°
2026-05-06 14:09 48.09347 8.24796 22930 ft 415 kts 212°
2026-05-06 14:10 48.06926 8.22427 23422 ft 417 kts 211°
2026-05-06 14:10 48.04484 8.20060 23825 ft 419 kts 211°
2026-05-06 14:10 48.02021 8.17689 24235 ft 422 kts 211°
2026-05-06 14:10 47.99550 8.15315 24668 ft 423 kts 211°
2026-05-06 14:11 47.97068 8.12938 25087 ft 425 kts 211°
2026-05-06 14:11 47.94574 8.10555 25513 ft 426 kts 211°
2026-05-06 14:11 47.92076 8.08172 25971 ft 427 kts 211°
2026-05-06 14:11 47.89575 8.05776 26401 ft 428 kts 211°
2026-05-06 14:12 47.87059 8.03367 26814 ft 429 kts 211°
2026-05-06 14:12 47.84547 8.00961 27221 ft 430 kts 211°
2026-05-06 14:12 47.82028 7.98556 27615 ft 431 kts 211°
2026-05-06 14:12 47.79531 7.96178 27990 ft 432 kts 211°
2026-05-06 14:13 47.77003 7.93773 28468 ft 430 kts 211°
2026-05-06 14:13 47.74488 7.91382 29002 ft 428 kts 211°
2026-05-06 14:13 47.71990 7.89011 29566 ft 424 kts 211°
2026-05-06 14:13 47.69513 7.86663 30087 ft 420 kts 211°
2026-05-06 14:14 47.67052 7.84334 30502 ft 418 kts 211°
2026-05-06 14:14 47.64618 7.82034 30900 ft 415 kts 211°
2026-05-06 14:14 47.62174 7.79726 31278 ft 413 kts 211°
2026-05-06 14:14 47.59762 7.77450 31655 ft 410 kts 211°
2026-05-06 14:15 47.57357 7.75185 32001 ft 409 kts 211°
2026-05-06 14:15 47.54960 7.72932 32340 ft 407 kts 211°
2026-05-06 14:15 47.52570 7.70687 32655 ft 405 kts 212°
2026-05-06 14:15 47.50192 7.68454 32935 ft 404 kts 212°
2026-05-06 14:16 47.47817 7.66226 33209 ft 404 kts 212°
2026-05-06 14:16 47.45481 7.64034 33487 ft 403 kts 212°
2026-05-06 14:16 47.43117 7.61818 33765 ft 402 kts 212°
2026-05-06 14:16 47.40756 7.59611 33994 ft 401 kts 212°
2026-05-06 14:17 47.38397 7.57408 34157 ft 401 kts 212°
2026-05-06 14:17 47.36036 7.55204 34310 ft 402 kts 212°
2026-05-06 14:17 47.33672 7.53001 34433 ft 403 kts 212°
2026-05-06 14:17 47.31296 7.50788 34568 ft 404 kts 212°
2026-05-06 14:18 47.28917 7.48576 34745 ft 404 kts 212°
2026-05-06 14:18 47.26537 7.46365 34880 ft 405 kts 212°
2026-05-06 14:18 47.21764 7.41940 34909 ft 408 kts 212°
2026-05-06 14:19 47.17027 7.37156 34889 ft 414 kts 215°
2026-05-06 14:19 47.12323 7.32236 34885 ft 420 kts 215°
2026-05-06 14:20 47.07543 7.27272 34880 ft 420 kts 215°
2026-05-06 14:20 47.02758 7.22321 34885 ft 420 kts 215°
2026-05-06 14:21 46.97974 7.17390 34895 ft 420 kts 215°
2026-05-06 14:21 46.93228 7.12504 34900 ft 418 kts 215°
2026-05-06 14:22 46.88462 7.07609 34907 ft 418 kts 215°
2026-05-06 14:22 46.83700 7.02729 34907 ft 418 kts 215°
2026-05-06 14:23 46.78930 6.97850 34903 ft 418 kts 215°
2026-05-06 14:23 46.74969 6.93807 34895 ft 417 kts 215°
2026-05-06 14:24 46.70206 6.88955 34908 ft 420 kts 214°
2026-05-06 14:24 46.65395 6.84066 34911 ft 422 kts 214°
2026-05-06 14:25 46.60584 6.79187 34918 ft 421 kts 214°
2026-05-06 14:25 46.55773 6.74321 34924 ft 421 kts 214°
2026-05-06 14:26 46.50986 6.69488 34905 ft 421 kts 214°
2026-05-06 14:26 46.46172 6.64637 34908 ft 421 kts 214°
2026-05-06 14:27 46.41348 6.59788 34902 ft 421 kts 214°
2026-05-06 14:27 46.36524 6.54949 34910 ft 421 kts 214°
2026-05-06 14:28 46.31707 6.50129 34923 ft 421 kts 214°
2026-05-06 14:28 46.26889 6.45319 34930 ft 420 kts 214°
2026-05-06 14:29 46.22107 6.40553 34931 ft 420 kts 214°
2026-05-06 14:29 46.17263 6.35737 34935 ft 425 kts 215°
2026-05-06 14:30 46.12373 6.30884 34931 ft 426 kts 214°
2026-05-06 14:30 46.07507 6.26066 34930 ft 427 kts 214°
2026-05-06 14:31 46.02597 6.21218 34933 ft 427 kts 214°
2026-05-06 14:31 45.97701 6.16398 34926 ft 423 kts 214°
2026-05-06 14:32 45.92854 6.11630 34933 ft 422 kts 215°
2026-05-06 14:32 45.88002 6.06890 34937 ft 422 kts 213°
2026-05-06 14:33 45.82584 6.03680 34937 ft 426 kts 194°
2026-05-06 14:33 45.76752 6.02387 34930 ft 426 kts 191°
2026-05-06 14:34 45.70885 6.01149 34936 ft 426 kts 191°
2026-05-06 14:34 45.65021 5.99867 34943 ft 426 kts 192°
2026-05-06 14:35 45.59158 5.98578 34938 ft 425 kts 192°
2026-05-06 14:35 45.53309 5.97296 34942 ft 425 kts 192°
2026-05-06 14:36 45.47475 5.95978 34937 ft 424 kts 194°
2026-05-06 14:36 45.41721 5.94206 34911 ft 423 kts 195°
2026-05-06 14:37 45.36016 5.92416 34921 ft 422 kts 195°
2026-05-06 14:37 45.30273 5.90624 34919 ft 422 kts 195°
2026-05-06 14:38 45.24532 5.88837 34922 ft 422 kts 195°
2026-05-06 14:38 45.18801 5.87056 34915 ft 421 kts 195°
2026-05-06 14:39 45.13069 5.85278 34918 ft 421 kts 195°
2026-05-06 14:39 45.07337 5.83504 34918 ft 422 kts 195°
2026-05-06 14:40 45.01640 5.81749 34902 ft 422 kts 196°
2026-05-06 14:40 44.95908 5.79984 34916 ft 421 kts 196°
2026-05-06 14:41 44.90181 5.78224 34911 ft 421 kts 196°
2026-05-06 14:41 44.84460 5.76471 34895 ft 421 kts 196°
2026-05-06 14:42 44.78742 5.74722 34909 ft 419 kts 196°
2026-05-06 14:42 44.73078 5.72990 34928 ft 419 kts 196°
2026-05-06 14:43 44.67380 5.71252 34905 ft 419 kts 196°
2026-05-06 14:43 44.61644 5.69506 34909 ft 423 kts 196°
2026-05-06 14:44 44.55888 5.67757 34908 ft 423 kts 196°
2026-05-06 14:45 44.47219 5.65135 34896 ft 424 kts 196°
2026-05-06 14:45 44.41463 5.63397 34909 ft 422 kts 196°
2026-05-06 14:46 44.35829 5.61250 34902 ft 418 kts 204°
2026-05-06 14:46 44.30461 5.58267 34891 ft 417 kts 205°
2026-05-06 14:47 44.25065 5.55270 34880 ft 416 kts 205°
2026-05-06 14:47 44.19670 5.52316 34894 ft 417 kts 205°
2026-05-06 14:48 44.14275 5.49376 34898 ft 416 kts 205°
2026-05-06 14:48 44.08882 5.46442 34875 ft 416 kts 205°
2026-05-06 14:49 44.03507 5.43525 34886 ft 414 kts 205°
2026-05-06 14:49 43.98169 5.40631 34889 ft 414 kts 205°
2026-05-06 14:50 43.92802 5.37721 34888 ft 414 kts 205°
2026-05-06 14:50 43.87437 5.34821 34890 ft 411 kts 205°
2026-05-06 14:51 43.82095 5.31937 34902 ft 413 kts 205°
2026-05-06 14:51 43.76912 5.28569 34896 ft 411 kts 212°
2026-05-06 14:52 43.71914 5.24727 34900 ft 411 kts 212°
2026-05-06 14:52 43.66939 5.20948 34900 ft 409 kts 212°
2026-05-06 14:53 43.61947 5.17178 34908 ft 409 kts 212°
2026-05-06 14:53 43.56949 5.13416 34902 ft 409 kts 212°
2026-05-06 14:54 43.51946 5.09657 34908 ft 409 kts 212°
2026-05-06 14:54 43.46994 5.05941 34901 ft 407 kts 211°
2026-05-06 14:55 43.42011 5.02212 34905 ft 407 kts 211°
2026-05-06 14:55 43.37030 4.98490 34907 ft 407 kts 211°
2026-05-06 14:56 43.32043 4.94773 34907 ft 408 kts 212°
2026-05-06 14:56 43.27042 4.91048 34909 ft 408 kts 212°
2026-05-06 14:57 43.22047 4.87336 34910 ft 408 kts 212°
2026-05-06 14:57 43.17048 4.83631 34909 ft 408 kts 212°
2026-05-06 14:58 43.12082 4.79955 34886 ft 408 kts 211°
2026-05-06 14:58 43.07098 4.76274 34914 ft 407 kts 211°
2026-05-06 14:59 43.02107 4.72592 34920 ft 407 kts 211°
2026-05-06 14:59 42.97121 4.68922 34923 ft 407 kts 211°
2026-05-06 15:00 42.92135 4.65259 34915 ft 407 kts 211°
2026-05-06 15:00 42.87190 4.61633 34927 ft 405 kts 211°
2026-05-06 15:01 42.82216 4.57995 34929 ft 405 kts 211°
2026-05-06 15:01 42.77234 4.54353 34937 ft 408 kts 212°
2026-05-06 15:02 42.72220 4.50695 34933 ft 408 kts 212°
2026-05-06 15:02 42.67210 4.47048 34934 ft 408 kts 212°
2026-05-06 15:03 42.62235 4.43431 34936 ft 408 kts 212°
2026-05-06 15:03 42.57207 4.39785 34939 ft 408 kts 211°
2026-05-06 15:04 42.52190 4.36154 34919 ft 407 kts 211°
2026-05-06 15:04 42.47235 4.32572 34935 ft 406 kts 211°
2026-05-06 15:05 42.42248 4.28977 34944 ft 406 kts 211°
2026-05-06 15:05 42.37258 4.25385 34944 ft 406 kts 211°
2026-05-06 15:06 42.32269 4.21798 34922 ft 406 kts 211°
2026-05-06 15:06 42.27294 4.18230 34945 ft 405 kts 212°
2026-05-06 15:07 42.22302 4.14656 34944 ft 406 kts 212°
2026-05-06 15:07 42.17299 4.11078 34948 ft 406 kts 212°
2026-05-06 15:08 42.12305 4.07512 34917 ft 406 kts 211°
2026-05-06 15:08 42.07308 4.03957 34943 ft 406 kts 211°
2026-05-06 15:09 42.02342 4.00426 34947 ft 406 kts 211°
2026-05-06 15:09 41.97337 3.96873 34945 ft 406 kts 211°
2026-05-06 15:10 41.92233 3.93555 34948 ft 411 kts 204°
2026-05-06 15:10 41.86587 3.91944 34941 ft 417 kts 195°
2026-05-06 15:11 41.81828 3.90893 34947 ft 417 kts 195°
2026-05-06 15:11 41.76106 3.89593 34948 ft 417 kts 195°
2026-05-06 15:12 41.70379 3.88279 34925 ft 417 kts 195°
2026-05-06 15:12 41.64664 3.86970 34942 ft 417 kts 195°
2026-05-06 15:13 41.58973 3.85666 34948 ft 417 kts 195°
2026-05-06 15:13 41.53242 3.84354 34949 ft 417 kts 195°
2026-05-06 15:14 41.47518 3.83041 34924 ft 417 kts 196°
2026-05-06 15:14 41.41829 3.81739 34942 ft 417 kts 196°
2026-05-06 15:15 41.36096 3.80432 34954 ft 418 kts 196°
2026-05-06 15:15 41.30363 3.79124 34948 ft 418 kts 196°
2026-05-06 15:16 41.24621 3.77816 34940 ft 418 kts 196°
2026-05-06 15:16 41.18882 3.76513 34944 ft 418 kts 196°
2026-05-06 15:17 41.13283 3.74701 34944 ft 410 kts 206°
2026-05-06 15:17 41.08006 3.71969 34944 ft 410 kts 207°
2026-05-06 15:18 41.02707 3.69214 34933 ft 408 kts 206°
2026-05-06 15:18 40.97410 3.66485 34943 ft 408 kts 206°
2026-05-06 15:19 40.92102 3.63760 34935 ft 409 kts 206°
2026-05-06 15:19 40.86801 3.61043 34944 ft 409 kts 206°
2026-05-06 15:20 40.81499 3.58328 34939 ft 408 kts 206°
2026-05-06 15:20 40.76192 3.55615 34942 ft 409 kts 206°
2026-05-06 15:21 40.70882 3.52908 34940 ft 409 kts 206°
2026-05-06 15:21 40.65609 3.50225 34942 ft 408 kts 206°
2026-05-06 15:22 40.60391 3.47578 34515 ft 395 kts 207°
2026-05-06 15:22 40.57833 3.46279 34253 ft 393 kts 207°
2026-05-06 15:22 40.55283 3.44984 34019 ft 392 kts 207°
2026-05-06 15:22 40.52736 3.43690 33762 ft 392 kts 207°
2026-05-06 15:23 40.50184 3.42394 33479 ft 393 kts 207°
2026-05-06 15:23 40.47663 3.41116 33213 ft 394 kts 207°
2026-05-06 15:23 40.45060 3.39930 32940 ft 399 kts 201°
2026-05-06 15:23 40.42300 3.39330 32336 ft 407 kts 190°
2026-05-06 15:24 40.39442 3.39376 31636 ft 412 kts 185°
2026-05-06 15:24 40.36569 3.39579 30896 ft 413 kts 184°
2026-05-06 15:24 40.33689 3.39782 30178 ft 413 kts 184°
2026-05-06 15:24 40.30809 3.39967 29417 ft 412 kts 184°
2026-05-06 15:25 40.27953 3.40141 28671 ft 411 kts 184°
2026-05-06 15:25 40.25101 3.40308 28007 ft 412 kts 184°
2026-05-06 15:25 40.22245 3.40473 27377 ft 408 kts 184°
2026-05-06 15:25 40.19449 3.40634 26700 ft 405 kts 184°
2026-05-06 15:26 40.16605 3.40798 26052 ft 403 kts 184°
2026-05-06 15:26 40.13850 3.40953 25441 ft 400 kts 183°
2026-05-06 15:26 40.11080 3.41108 24738 ft 398 kts 183°
2026-05-06 15:26 40.08292 3.41264 23716 ft 404 kts 183°
2026-05-06 15:27 40.05460 3.41421 22593 ft 409 kts 183°
2026-05-06 15:27 40.02626 3.41581 21771 ft 406 kts 182°
2026-05-06 15:27 39.99819 3.41740 21119 ft 399 kts 182°
2026-05-06 15:27 39.97070 3.41898 20528 ft 392 kts 182°
2026-05-06 15:28 39.94371 3.42053 19972 ft 385 kts 182°
2026-05-06 15:28 39.91715 3.42202 19439 ft 378 kts 182°
2026-05-06 15:28 39.89105 3.42350 18935 ft 373 kts 182°
2026-05-06 15:28 39.86521 3.42495 18442 ft 371 kts 182°
2026-05-06 15:29 39.83940 3.42637 17912 ft 370 kts 182°
2026-05-06 15:29 39.81370 3.42781 17389 ft 369 kts 182°
2026-05-06 15:29 39.78802 3.42925 16874 ft 368 kts 182°
2026-05-06 15:29 39.76246 3.43068 16358 ft 368 kts 182°
2026-05-06 15:30 39.73701 3.43024 15843 ft 363 kts 191°
2026-05-06 15:30 39.71300 3.42186 15394 ft 354 kts 207°
2026-05-06 15:30 39.69263 3.40528 14967 ft 348 kts 223°
2026-05-06 15:30 39.67695 3.38199 14562 ft 338 kts 238°
2026-05-06 15:31 39.66610 3.35555 14349 ft 324 kts 245°
2026-05-06 15:31 39.65660 3.32987 14003 ft 308 kts 245°
2026-05-06 15:31 39.64749 3.30541 13738 ft 293 kts 245°
2026-05-06 15:32 39.63022 3.25999 13236 ft 271 kts 244°
2026-05-06 15:32 39.62182 3.23818 12799 ft 269 kts 244°
2026-05-06 15:32 39.61351 3.21653 12348 ft 268 kts 244°
2026-05-06 15:32 39.60529 3.19524 11901 ft 267 kts 244°
2026-05-06 15:33 39.59695 3.17373 11449 ft 267 kts 244°
2026-05-06 15:33 39.58861 3.15217 11004 ft 266 kts 244°
2026-05-06 15:33 39.58032 3.13074 10577 ft 267 kts 244°
2026-05-06 15:33 39.57201 3.10918 10225 ft 267 kts 244°
2026-05-06 15:34 39.56364 3.08755 9912 ft 267 kts 244°
2026-05-06 15:34 39.55530 3.06602 9563 ft 267 kts 244°
2026-05-06 15:34 39.54699 3.04465 9218 ft 265 kts 244°
2026-05-06 15:34 39.53881 3.02364 8873 ft 264 kts 244°
2026-05-06 15:35 39.53055 3.00239 8543 ft 264 kts 244°
2026-05-06 15:35 39.52208 2.98128 8209 ft 264 kts 242°
2026-05-06 15:35 39.51328 2.96046 7887 ft 263 kts 242°
2026-05-06 15:35 39.50448 2.93974 7561 ft 262 kts 242°
2026-05-06 15:36 39.49571 2.91905 7240 ft 261 kts 242°
2026-05-06 15:36 39.48700 2.89842 6916 ft 260 kts 242°
2026-05-06 15:36 39.47834 2.87791 6611 ft 259 kts 242°
2026-05-06 15:36 39.46971 2.85745 6295 ft 259 kts 242°
2026-05-06 15:37 39.46121 2.83730 5964 ft 257 kts 242°
2026-05-06 15:37 39.45261 2.81689 5640 ft 258 kts 242°
2026-05-06 15:37 39.44400 2.79661 5320 ft 255 kts 242°
2026-05-06 15:37 39.43554 2.77667 5031 ft 249 kts 242°
2026-05-06 15:38 39.42743 2.75748 4957 ft 234 kts 242°
2026-05-06 15:38 39.41983 2.73944 4954 ft 227 kts 242°
2026-05-06 15:38 39.41227 2.72151 4967 ft 227 kts 242°
2026-05-06 15:38 39.40472 2.70364 4981 ft 226 kts 242°
2026-05-06 15:39 39.39716 2.68576 4989 ft 226 kts 242°
2026-05-06 15:39 39.38959 2.66788 4992 ft 226 kts 242°
2026-05-06 15:39 39.38227 2.65027 4987 ft 225 kts 244°
2026-05-06 15:39 39.37852 2.63077 4933 ft 225 kts 268°
2026-05-06 15:40 39.37848 2.61051 4847 ft 225 kts 271°
2026-05-06 15:40 39.37896 2.59019 4703 ft 226 kts 272°
2026-05-06 15:40 39.37947 2.56993 4538 ft 226 kts 272°
2026-05-06 15:40 39.37999 2.54964 4327 ft 225 kts 272°
2026-05-06 15:41 39.38050 2.52938 4103 ft 225 kts 272°
2026-05-06 15:41 39.38101 2.50912 3964 ft 226 kts 272°
2026-05-06 15:41 39.38151 2.48908 3957 ft 226 kts 272°
2026-05-06 15:41 39.38211 2.46885 3967 ft 226 kts 277°
2026-05-06 15:42 39.38754 2.45010 3961 ft 225 kts 307°
2026-05-06 15:42 39.39965 2.43789 3813 ft 223 kts 343°
2026-05-06 15:42 39.41460 2.43770 3607 ft 212 kts 22°
2026-05-06 15:42 39.42596 2.44906 3396 ft 208 kts 53°
2026-05-06 15:43 39.43358 2.46495 3182 ft 207 kts 63°
2026-05-06 15:43 39.44020 2.48150 2992 ft 207 kts 63°
2026-05-06 15:43 39.44747 2.49900 2972 ft 228 kts 61°
2026-05-06 15:43 39.45558 2.51662 2988 ft 228 kts 59°
2026-05-06 15:44 39.46366 2.53379 2986 ft 219 kts 59°
2026-05-06 15:44 39.47138 2.55016 2834 ft 207 kts 59°
2026-05-06 15:44 39.47864 2.56554 2635 ft 193 kts 59°
2026-05-06 15:44 39.48552 2.58010 2390 ft 186 kts 59°
2026-05-06 15:45 39.49223 2.59431 2130 ft 185 kts 59°
2026-05-06 15:45 39.49894 2.60852 1871 ft 185 kts 59°
2026-05-06 15:45 39.50566 2.62276 1619 ft 185 kts 59°
2026-05-06 15:45 39.51219 2.63658 1384 ft 174 kts 59°
2026-05-06 15:46 39.51834 2.64960 1141 ft 166 kts 59°
2026-05-06 15:46 39.52418 2.66199 932 ft 157 kts 59°
2026-05-06 15:46 39.52972 2.67372 705 ft 142 kts 58°
2026-05-06 15:46 39.53460 2.68406 504 ft 131 kts 58°
2026-05-06 15:47 39.53937 2.69415 330 ft 131 kts 59°
2026-05-06 15:47 39.54416 2.70391 199 ft 130 kts 58°
2026-05-06 15:47 39.54875 2.71404 56 ft 130 kts 59°
2026-05-06 15:47 39.55302 2.72314 44 ft 94 kts 57°
2026-05-06 15:48 39.55542 2.72816 44 ft 37 kts 58°
2026-05-06 15:48 39.55609 2.72957 44 ft 15 kts 58°
2026-05-06 15:48 39.55672 2.73088 44 ft 19 kts 58°
2026-05-06 15:48 39.55716 2.73257 41 ft 21 kts 85°
2026-05-06 15:49 39.55718 2.73429 44 ft 0 kts 89°
2026-05-06 15:49 39.55719 2.73431 44 ft 2 kts 89°
2026-05-06 15:49 39.55719 2.73468 44 ft 6 kts 89°
2026-05-06 15:49 39.55690 2.73524 44 ft 11 kts 178°
2026-05-06 15:50 39.55600 2.73515 43 ft 15 kts 151°
2026-05-06 15:50 39.55536 2.73565 44 ft 11 kts 162°
2026-05-06 15:50 39.55472 2.73505 44 ft 13 kts 237°
2026-05-06 15:50 39.55395 2.73465 44 ft 15 kts 152°
2026-05-06 15:51 39.55308 2.73533 44 ft 8 kts 148°
2026-05-06 15:51 39.55254 2.73576 44 ft 10 kts 148°
2026-05-06 15:51 39.55184 2.73602 44 ft 12 kts 220°
2026-05-06 15:51 39.55133 2.73502 42 ft 14 kts 240°
2026-05-06 15:52 39.55091 2.73424 44 ft 6 kts 211°
2026-05-06 15:52 39.55046 2.73424 44 ft 8 kts 165°
2026-05-06 15:52 39.55002 2.73439 44 ft 1 kts 164°